Yakima, WA
on Monday, December 24, 2012

Monday
Previous Day Next Day
Daily Summary
 ActualAverageRecord
Temperature
Mean Temperature °F 28°F  
Max Temperature 38°F 34°F 53°F (1978)
Min Temperature 22°F 21°F -1°F (1990)
Degree Days
Heating Degree Days 35 38  
Month to date heating degree days 722 869  
Since 1 July heating degree days 1960 2402  
Cooling Degree Days 0 0  
Month to date cooling degree days 0 0  
Year to date cooling degree days 667 472  
Moisture
Dew Point 27°F   
Average Humidity 86    
Maximum Humidity 96    
Minimum Humidity 76    
Precipitation
Precipitation 0.00 in 0.05 in 0.32 in (1968)
Month to date precipitation 1.76 1.20  
Year to date precipitation 8.95 7.92  
Snow
Snow 0.00 in 0.30 in 2.60 in (1988)
Month to date snowfall 8.1 7.3  
Year to date snowfall 30.3 19.5  
Since 1 July snowfall 8.8 10.9  
Snow Depth 0.00 in   
Wind
Wind Speed 3 mph   
Max Wind Speed 12 mph   
Max Gust Speed 21 mph   
Visibility 6 miles   
Events Fog   

Key: T is trace of precipitation, MM is missing value
Source: NWS Daily Summary
Time(PST)TemperatureDew PointHumidity Pressure Visibility Wind DirectionWind SpeedGust SpeedPrecipitationEvents Conditions
12:53 AM 34.0°F 32.0°F 92% 29.79 in 4.0 miles North 4.6 mph - N/A   Overcast
1:53 AM 34.0°F 30.9°F 89% 29.82 in 4.0 miles South 3.5 mph - N/A   Partly Cloudy
2:17 AM 33.8°F 30.2°F 87% 29.80 in 2.5 miles Calm Calm - N/A   Clear
2:39 AM 32.0°F 30.2°F 93% 29.81 in 1.8 miles West 5.8 mph - N/A   Partly Cloudy
2:43 AM 32.0°F 28.4°F 87% 29.81 in 0.8 miles West 6.9 mph - N/A   Mist
2:53 AM 32.0°F 30.0°F 92% 29.84 in 0.5 miles WNW 3.5 mph - N/A Fog Fog
3:02 AM 32.0°F 30.2°F 93% 29.82 in 0.2 miles WNW 3.5 mph - N/A Fog Fog
3:53 AM 30.9°F 28.9°F 92% 29.88 in 0.2 miles WSW 5.8 mph - N/A Fog Light Freezing Fog
4:00 AM 32.0°F 30.2°F 93% 29.84 in 0.5 miles SW 5.8 mph - N/A Fog Fog
4:28 AM 30.2°F 28.4°F 93% 29.85 in 1.8 miles WNW 4.6 mph - N/A   Mostly Cloudy
4:48 AM 30.2°F 26.6°F 86% 29.87 in 0.8 miles NW 6.9 mph - N/A   Mist
4:49 AM 30.0°F 27.0°F 88% 29.90 in 0.8 miles NW 6.9 mph - N/A   Mist
4:58 AM 30.2°F 28.4°F 93% 29.87 in 1.0 miles WNW 5.8 mph - N/A   Mist
5:15 AM 28.4°F 26.6°F 93% 29.88 in 0.5 miles Calm Calm - N/A Fog Light Freezing Fog
5:41 AM 28.4°F 24.8°F 86% 29.90 in 3.0 miles SW 4.6 mph - N/A   Mostly Cloudy
5:48 AM 28.4°F 24.8°F 86% 29.90 in 3.0 miles Calm Calm - N/A   Partly Cloudy
5:53 AM 26.1°F 23.0°F 88% 29.94 in 3.0 miles Calm Calm - N/A   Partly Cloudy
6:53 AM 24.1°F 21.9°F 91% 29.97 in 10.0 miles WSW 4.6 mph - N/A   Clear
7:53 AM 21.9°F 19.0°F 89% 30.01 in 10.0 miles Calm Calm - N/A   Clear
8:53 AM 27.0°F 23.0°F 85% 30.04 in 10.0 miles Calm Calm - N/A   Partly Cloudy
9:53 AM 28.9°F 26.1°F 89% 30.08 in 10.0 miles Calm Calm - N/A   Partly Cloudy
10:24 AM 30.2°F 26.6°F 86% 30.05 in 10.0 miles Calm Calm - N/A   Partly Cloudy
10:53 AM 32.0°F 28.0°F 85% 30.09 in 5.0 miles Calm Calm - N/A   Scattered Clouds
11:53 AM 34.0°F 30.0°F 85% 30.09 in 8.0 miles Calm Calm - N/A   Partly Cloudy
12:14 PM 33.8°F 30.2°F 87% 30.07 in 5.0 miles East 4.6 mph - N/A   Clear
12:53 PM 34.0°F 30.0°F 85% 30.12 in 5.0 miles ESE 3.5 mph - N/A   Scattered Clouds
1:53 PM 37.0°F 30.9°F 79% 30.13 in 8.0 miles Calm Calm - N/A   Partly Cloudy
2:53 PM 37.9°F 32.0°F 79% 30.13 in 9.0 miles Calm Calm - N/A   Scattered Clouds
3:53 PM 36.0°F 32.0°F 86% 30.16 in 9.0 miles Calm Calm - N/A   Clear
4:53 PM 33.1°F 28.9°F 85% 30.17 in 7.0 miles Calm Calm - N/A   Clear
5:53 PM 30.0°F 26.1°F 85% 30.18 in 10.0 miles West 10.4 mph 19.6 mph N/A   Clear
6:53 PM 28.0°F 24.1°F 85% 30.19 in 9.0 miles WSW 3.5 mph - N/A   Clear
7:53 PM 25.0°F 21.9°F 88% 30.19 in 10.0 miles WNW 5.8 mph - N/A   Clear
8:53 PM 25.0°F 21.9°F 88% 30.19 in 9.0 miles WNW 6.9 mph - N/A   Clear
9:53 PM 25.0°F 21.0°F 85% 30.18 in 9.0 miles Calm Calm - N/A   Clear
10:53 PM 26.1°F 21.9°F 84% 30.19 in 10.0 miles WNW 4.6 mph - N/A   Clear
11:53 PM 25.0°F 21.0°F 85% 30.18 in 9.0 miles West 4.6 mph - N/A   Clear
Moon Phase
Dec. 24 Dec. 28 Jan. 04 Jan. 11 Jan. 18
Sunrise:07:44 AM (PST) Moon Rise:01:54 PM (PST)
Sunset:04:19 PM (PST) Moon Set:04:23 AM (PST)

Copyright © 2014 The Weather Underground, Inc.